Wind_Speed
10 9 9 8 9 9 9 9 9 8 7 7 7 6 7 7 6 6 6 6 6 5 6 5 5 5 4 4 3 3 3 2 2 1 0 0 0 0 0 0 1 2 2
9 9 8 8 9 9 9 9 9 8 8 7 7 6 7 6 6 6 6 5 5 4 4 4 4 4 3 3 2 3 3 2 2 1 1 1 0 0 1 0 1 2 2
10 9 8 8 8 9 9 8 8 8 8 8 7 6 7 6 5 5 4 4 4 3 3 3 2 2 3 2 2 2 2 2 1 1 1 1 1 1 1 1 1 1 2
10 10 9 9 8 9 9 8 8 7 6 7 6 6 6 6 5 4 3 3 3 2 2 2 2 2 2 1 1 2 2 1 1 1 0 0 0 0 1 1 1 1 1
10 10 10 9 9 9 9 8 8 7 7 6 6 5 5 5 5 4 3 3 2 2 2 1 1 1 1 1 1 1 1 1 1 1 1 1 1 1 1 1 1 1 1
10 10 10 9 9 9 9 9 8 7 6 6 6 5 5 4 4 3 3 2 1 1 1 1 1 0 0 1 1 1 1 1 1 1 2 2 2 2 1 2 2 2 2
9 9 10 9 9 9 9 8 7 6 6 5 5 4 3 3 3 3 2 1 1 0 1 2 2 1 1 2 2 2 2 2 2 2 2 2 2 2 2 2 2 2 2
9 9 9 9 9 8 8 7 7 5 5 4 4 3 2 2 2 1 1 1 0 1 2 2 2 2 2 3 3 2 2 3 3 3 3 3 3 3 3 3 2 2 3
8 8 8 9 8 7 7 6 5 5 4 3 3 2 2 1 1 1 1 1 1 2 3 2 3 3 3 3 3 3 3 3 4 3 3 3 3 3 4 3 3 2 3
7 8 8 8 8 7 7 6 4 4 4 3 3 2 2 1 0 1 2 3 3 3 3 3 4 3 4 4 4 4 4 4 4 4 4 4 4 3 4 3 3 2 3
7 7 8 8 8 7 7 6 5 4 3 3 3 2 2 1 1 2 2 3 4 4 4 4 4 5 5 6 6 5 5 4 4 5 5 4 4 4 5 3 3 3 3
7 7 7 7 7 6 6 5 4 4 3 3 3 3 3 2 2 3 3 3 3 4 4 5 5 5 6 6 7 7 6 6 6 6 6 5 5 6 5 4 4 3 3
7 7 6 6 7 6 6 6 5 4 4 4 3 3 3 3 3 3 4 4 4 4 4 5 5 6 6 7 7 8 8 8 8 8 7 7 7 7 6 5 5 4 4
7 7 7 6 6 6 6 6 5 5 4 5 5 4 3 3 3 3 4 4 4 4 4 5 6 6 6 7 7 8 9 9 8 8 8 8 8 8 8 7 6 5 5
8 7 7 7 6 6 6 5 5 6 5 5 5 4 4 4 3 3 4 3 4 4 4 4 4 5 6 7 7 8 8 8 9 8 9 9 9 9 8 8 7 6 6
7 7 8 8 8 7 7 6 5 5 6 6 5 5 5 5 4 4 4 4 4 4 5 5 4 5 7 7 7 8 8 9 9 9 9 10 10 9 9 8 8 8 7
8 8 8 8 8 8 8 6 6 6 6 7 6 5 5 4 4 4 4 4 5 6 6 6 6 7 8 9 9 9 9 9 9 9 9 9 10 10 10 10 10 10 9
8 8 8 7 7 7 7 7 7 7 6 7 7 7 6 5 4 4 5 5 6 7 7 8 7 8 8 9 9 9 10 10 9 9 10 10 11 11 12 11 11 11 11
8 8 8 8 7 7 7 7 7 7 7 7 7 7 7 6 6 5 6 6 6 7 8 8 8 9 9 9 10 10 10 10 11 10 11 11 11 12 12 12 12 12 13
7 8 8 8 7 7 7 7 7 7 7 7 7 7 7 7 7 6 6 7 7 7 8 9 9 10 11 11 11 11 11 11 12 12 12 12 12 13 13 13 13 14 14
8 8 7 8 8 8 7 7 7 8 8 8 7 7 7 8 8 7 7 8 8 8 10 11 10 11 11 11 12 12 12 12 13 13 13 14 13 14 14 14 14 14 14
8 8 7 7 8 8 8 7 8 8 8 8 8 7 8 8 8 9 8 9 9 9 10 11 10 11 12 12 12 13 14 14 14 14 14 14 14 14 15 15 16 16 16
8 7 7 7 8 8 8 8 8 9 10 9 10 9 9 9 10 11 10 10 10 10 11 10 10 11 12 13 13 13 14 15 16 16 16 16 16 17 17 17 17 17 17
8 7 7 7 8 9 9 9 10 10 10 10 10 10 10 11 11 12 11 11 11 11 12 12 11 11 12 13 13 14 15 15 16 16 17 18 18 18 18 19 19 19 19
8 8 8 8 9 10 10 10 11 10 11 11 11 11 12 12 12 13 13 12 12 13 13 13 12 12 12 13 14 14 15 15 16 17 18 19 20 20 20 20 20 21 21
8 8 8 9 10 10 11 11 11 11 12 12 13 12 12 13 14 14 14 14 15 14 14 15 14 13 14 14 15 15 15 16 16 17 18 19 20 21 21 21 21 21 22
Wind_Direction
64 66 72 77 81 85 84 81 82 85 89 90 89 89 93 96 96 102 115 118 117 105 100 107 106 103 105 108 120 129 135 136 141 125 70 18 186 205 222 255 204 176 175
62 65 71 77 83 83 82 81 81 82 86 89 88 88 93 92 96 103 116 121 118 111 113 115 112 111 111 115 125 126 132 147 147 135 120 108 49 154 191 232 203 203 204
59 66 70 77 83 83 83 83 80 81 84 88 89 89 90 86 89 103 114 121 127 128 121 124 127 132 127 114 121 133 143 161 165 133 131 137 112 97 128 121 177 213 213
59 68 74 75 82 82 81 81 78 78 84 86 84 88 89 89 86 87 110 132 146 154 139 131 143 154 143 127 134 145 151 156 155 173 162 161 175 204 192 212 191 215 206
64 69 73 71 76 76 77 78 79 84 90 86 82 84 84 89 87 79 86 128 141 164 165 153 158 159 150 150 157 178 184 180 195 244 263 263 270 261 225 234 228 224 211
67 69 71 72 71 72 76 77 81 88 89 85 82 82 87 86 83 82 86 109 131 154 221 235 230 230 193 194 220 197 187 205 236 261 279 268 268 274 269 263 251 245 249
66 67 70 67 67 74 76 76 83 85 80 82 82 81 86 87 81 86 91 95 122 231 264 246 236 259 271 267 262 247 222 227 241 262 274 279 271 272 270 273 273 246 247
65 64 67 62 63 67 71 75 78 81 72 70 75 79 78 89 94 118 127 161 187 244 259 255 237 262 271 267 255 255 253 255 258 270 277 283 283 282 280 284 282 251 251
61 59 58 58 59 65 73 77 78 74 58 54 61 71 65 65 102 215 244 258 246 252 250 247 259 260 262 262 247 245 262 266 269 274 280 281 288 290 286 288 288 261 243
59 59 61 60 64 68 72 73 67 62 52 46 48 56 55 39 349 255 262 261 273 268 254 253 265 262 256 252 243 246 261 264 261 265 272 279 286 292 290 290 293 260 235
61 63 64 62 60 54 56 63 57 52 41 34 32 22 15 354 318 289 267 259 265 272 263 261 265 253 248 250 245 247 250 256 260 260 264 270 273 278 281 279 281 259 252
61 63 59 52 49 47 47 44 34 30 23 15 8 355 329 315 299 288 271 277 282 280 268 259 261 255 250 250 249 244 245 251 257 258 257 262 262 268 271 272 273 266 271
58 58 51 45 43 39 38 32 27 22 19 11 3 353 328 314 305 295 278 279 284 281 268 265 256 253 254 254 250 251 253 253 255 256 253 255 258 259 260 263 272 267 260
52 55 53 46 41 34 27 29 33 28 22 6 354 349 332 311 302 298 292 282 282 280 278 275 260 255 251 256 255 259 262 256 258 256 251 252 256 257 256 261 267 265 268
49 49 51 46 39 30 23 30 27 19 13 2 358 347 331 322 318 314 312 296 291 288 291 288 264 262 257 260 263 264 263 258 259 255 253 254 254 255 258 262 269 269 276
41 44 45 43 39 34 31 29 23 18 13 3 353 342 330 322 315 306 302 298 299 303 302 291 276 269 267 269 267 264 259 254 257 259 257 255 255 257 263 266 269 272 272
37 38 40 38 35 33 31 35 29 23 9 2 355 347 338 328 309 306 297 296 293 291 286 282 273 270 268 266 264 264 260 257 259 259 260 260 261 261 262 267 271 272 270
34 33 33 34 31 28 31 33 29 22 12 6 359 352 346 342 326 308 302 298 290 289 288 284 280 270 267 263 261 262 259 259 256 262 266 265 266 266 267 265 265 266 270
31 28 26 27 26 26 25 27 26 21 13 5 2 1 1 354 349 339 330 317 307 299 292 284 277 274 270 261 258 256 255 258 259 262 266 268 268 269 271 269 264 264 266
29 26 26 25 24 25 25 26 24 19 12 6 6 9 8 7 0 342 331 322 317 311 302 292 283 277 268 261 260 256 258 260 261 262 266 269 270 269 269 267 264 263 266
27 26 26 23 23 22 21 20 17 14 10 6 5 7 5 2 358 348 336 327 317 312 308 306 292 283 273 268 266 262 264 262 261 262 265 267 269 269 269 268 266 264 266
21 19 21 20 16 14 13 10 6 5 2 356 355 356 351 347 342 335 330 327 322 317 315 308 302 292 284 277 271 266 266 268 267 266 268 269 270 270 268 269 271 269 269
12 9 9 7 3 1 357 352 350 352 350 348 347 344 342 340 335 330 327 323 320 320 320 316 308 301 292 287 281 272 270 270 273 269 270 270 271 272 270 270 273 272 273
358 355 353 350 351 349 346 343 340 339 340 340 341 338 338 335 334 330 328 324 323 323 318 315 312 307 300 293 287 280 275 272 271 271 272 272 272 271 271 272 272 271 272
344 339 339 342 341 341 340 335 333 330 328 329 332 331 331 330 330 327 324 321 318 320 320 315 308 308 306 300 292 287 281 277 275 272 271 273 274 273 271 271 272 270 270
336 335 333 334 334 331 329 326 324 322 321 320 322 321 323 324 325 324 322 319 313 311 312 312 308 305 302 303 298 292 287 281 280 278 273 273 274 275 274 273 272 271 270
Height
5884 5883 5883 5882 5882 5882 5882 5882 5882 5882 5882 5882 5883 5883 5884 5885 5886 5886 5887 5888 5889 5889 5891 5891 5892 5893 5893 5894 5894 5895 5895 5896 5896 5896 5897 5897 5897 5897 5898 5898 5898 5898 5898
5884 5884 5883 5883 5883 5883 5883 5883 5883 5883 5883 5884 5884 5885 5885 5886 5887 5888 5888 5889 5890 5891 5891 5892 5893 5894 5894 5895 5895 5895 5896 5896 5896 5897 5897 5897 5897 5898 5898 5898 5898 5898 5898
5885 5884 5884 5884 5884 5884 5884 5884 5884 5885 5885 5885 5886 5886 5887 5888 5888 5889 5889 5890 5891 5892 5892 5893 5893 5894 5895 5895 5896 5896 5896 5896 5897 5897 5897 5897 5898 5898 5898 5898 5898 5898 5898
5886 5884 5885 5885 5885 5885 5885 5885 5885 5886 5886 5887 5887 5888 5888 5889 5889 5889 5890 5890 5891 5892 5893 5893 5894 5895 5895 5896 5896 5897 5897 5897 5897 5897 5897 5898 5898 5898 5898 5898 5898 5898 5898
5888 5887 5887 5887 5887 5886 5886 5886 5887 5887 5887 5888 5888 5889 5889 5890 5890 5890 5890 5890 5892 5892 5893 5894 5894 5895 5895 5896 5896 5897 5897 5897 5898 5898 5898 5898 5898 5898 5898 5898 5897 5897 5897
5890 5889 5888 5888 5888 5888 5887 5887 5888 5888 5889 5889 5889 5890 5890 5890 5891 5891 5891 5892 5892 5893 5893 5894 5894 5895 5895 5896 5896 5896 5897 5897 5898 5898 5898 5898 5898 5898 5897 5897 5897 5897 5897
5891 5891 5890 5890 5889 5889 5889 5889 5889 5889 5890 5890 5890 5890 5891 5891 5891 5892 5892 5892 5893 5893 5894 5894 5894 5895 5895 5895 5896 5896 5897 5897 5897 5897 5898 5898 5897 5897 5897 5897 5897 5897 5897
5893 5892 5892 5891 5890 5890 5890 5890 5890 5890 5891 5891 5891 5891 5891 5891 5892 5892 5892 5892 5893 5893 5893 5894 5894 5894 5895 5895 5895 5896 5896 5897 5897 5897 5897 5897 5897 5897 5897 5897 5896 5896 5896
5894 5893 5893 5892 5891 5891 5891 5891 5891 5891 5891 5891 5891 5891 5891 5891 5891 5892 5892 5892 5892 5892 5892 5893 5893 5894 5894 5894 5895 5896 5896 5896 5896 5896 5897 5897 5897 5897 5897 5896 5896 5896 5896
5895 5894 5894 5893 5892 5891 5891 5891 5891 5892 5892 5892 5892 5892 5892 5892 5891 5892 5892 5892 5892 5892 5892 5892 5893 5893 5894 5894 5895 5895 5895 5896 5896 5896 5896 5896 5896 5896 5896 5896 5896 5896 5895
5896 5895 5895 5894 5893 5893 5892 5892 5892 5892 5892 5892 5892 5892 5891 5891 5891 5891 5891 5891 5891 5891 5891 5891 5892 5892 5893 5893 5894 5894 5895 5895 5895 5895 5896 5896 5896 5896 5895 5895 5895 5895 5895
5897 5896 5896 5895 5895 5894 5893 5893 5893 5892 5892 5892 5892 5891 5891 5891 5891 5891 5891 5890 5890 5890 5890 5890 5890 5891 5891 5892 5892 5893 5893 5894 5894 5895 5895 5895 5895 5895 5895 5895 5895 5895 5894
5898 5897 5896 5896 5895 5895 5894 5893 5893 5893 5892 5892 5891 5891 5891 5890 5890 5890 5890 5890 5890 5890 5889 5889 5889 5889 5890 5891 5891 5892 5892 5893 5893 5893 5894 5894 5894 5894 5894 5894 5894 5894 5894
5899 5898 5897 5897 5896 5895 5894 5894 5893 5893 5892 5892 5891 5891 5890 5890 5890 5890 5889 5889 5889 5889 5888 5888 5888 5888 5889 5890 5890 5891 5891 5891 5892 5892 5892 5892 5892 5893 5893 5892 5893 5893 5893
5899 5899 5898 5897 5897 5896 5895 5894 5894 5893 5893 5892 5891 5890 5890 5890 5889 5889 5889 5889 5888 5888 5888 5887 5887 5887 5888 5888 5889 5889 5889 5890 5890 5890 5891 5891 5891 5891 5891 5891 5892 5892 5892
5900 5899 5898 5898 5897 5897 5896 5895 5894 5893 5893 5892 5891 5890 5890 5889 5889 5888 5888 5888 5888 5887 5887 5887 5887 5886 5886 5887 5887 5887 5887 5888 5888 5889 5889 5889 5890 5890 5890 5890 5890 5890 5890
5901 5900 5899 5898 5898 5897 5896 5895 5894 5893 5893 5892 5891 5890 5889 5888 5888 5888 5888 5887 5887 5887 5886 5886 5885 5885 5885 5885 5885 5886 5886 5886 5887 5887 5887 5888 5888 5888 5888 5888 5888 5888 5888
5902 5901 5900 5899 5898 5897 5896 5895 5894 5894 5892 5891 5890 5889 5888 5888 5887 5887 5886 5886 5885 5885 5885 5884 5884 5884 5884 5884 5884 5884 5884 5885 5885 5885 5886 5886 5886 5886 5886 5886 5886 5886 5886
5902 5901 5901 5900 5899 5898 5897 5896 5895 5894 5892 5891 5890 5889 5888 5887 5887 5886 5886 5885 5884 5884 5883 5883 5882 5882 5882 5882 5882 5882 5883 5883 5883 5883 5884 5884 5884 5883 5883 5883 5883 5883 5883
5903 5902 5901 5900 5899 5898 5897 5896 5895 5894 5893 5891 5890 5889 5888 5887 5886 5886 5885 5884 5883 5882 5882 5881 5880 5880 5879 5879 5879 5880 5880 5880 5881 5881 5881 5881 5881 5881 5880 5880 5880 5881 5880
5904 5903 5902 5901 5900 5899 5897 5896 5895 5894 5893 5892 5890 5889 5888 5888 5886 5885 5884 5883 5882 5881 5880 5879 5878 5877 5876 5876 5876 5877 5877 5877 5878 5878 5878 5878 5878 5877 5877 5877 5877 5877 5877
5904 5903 5902 5901 5900 5899 5898 5897 5896 5894 5893 5892 5890 5889 5888 5887 5886 5885 5883 5882 5881 5879 5878 5876 5875 5874 5874 5873 5873 5873 5874 5875 5874 5875 5874 5874 5874 5874 5874 5874 5874 5874 5874
5904 5903 5902 5902 5900 5899 5898 5897 5895 5894 5893 5891 5890 5889 5888 5887 5885 5884 5882 5881 5880 5878 5876 5874 5873 5872 5871 5871 5870 5871 5871 5871 5871 5871 5870 5871 5870 5870 5871 5871 5870 5870 5870
5904 5903 5902 5901 5900 5899 5898 5896 5895 5894 5892 5891 5890 5888 5887 5886 5884 5883 5881 5880 5878 5877 5875 5873 5871 5870 5869 5868 5867 5867 5868 5868 5868 5867 5867 5866 5866 5866 5866 5866 5866 5866 5865
5904 5903 5902 5901 5899 5898 5897 5895 5894 5893 5891 5890 5889 5887 5885 5884 5883 5881 5880 5878 5876 5875 5873 5871 5869 5868 5867 5866 5865 5864 5864 5864 5863 5863 5863 5862 5862 5861 5861 5861 5861 5861 5860
5903 5902 5901 5900 5899 5897 5896 5894 5893 5891 5890 5889 5887 5886 5884 5883 5881 5879 5878 5876 5874 5872 5871 5869 5867 5866 5864 5863 5862 5861 5860 5860 5859 5859 5859 5858 5857 5857 5856 5856 5856 5855 5855